Location: Castelnau
(43.6639°N, 0.8431°W)
Time: 16:29:00
(UTC+00:00)

Meteor 1-13 Rocket - Pass Details

Date: 13 January 2026
Orbit: 830 x 910 km, 81.3° (Epoch: 11 February)

Event Time Altitude Azimuth Distance (km) Brightness Sun altitude
Exits shadow 04:59:49 79° 280° (W) 932 4.2 -27.5°
Maximum altitude 04:59:57 79° 262° (W) 930 4.2 -27.4°
Drops below altitude 10° 05:05:51 10° 177° (S) 2,581 6.8 -26.4°
Sets 05:08:18 0° 176° (S) 3,512 7.5 -25.9°
